Wind_Speed
12 12 11 11 9 8 7 6 4 4 3 2 2 3 4 5 5 6 7 7 7 7 8 8 8 8 8 9 8 8 9 9 8 8 8 8 9 7 7 6 6 5 5 5
14 14 13 12 12 12 10 8 7 6 5 3 3 3 3 5 5 6 6 6 6 7 7 7 7 7 7 7 7 8 8 8 8 8 8 8 8 7 6 5 5 4 4 4
17 14 13 14 14 14 11 11 10 9 7 5 5 5 4 6 6 6 6 6 6 6 6 6 6 6 6 6 6 6 7 7 8 7 7 7 7 7 7 5 5 5 5 6
19 16 16 16 16 15 14 12 10 10 9 7 7 8 7 7 7 7 7 7 7 6 5 5 5 5 5 5 6 6 6 7 7 7 7 7 7 7 7 7 6 6 6 7
20 19 19 19 17 15 14 12 11 12 11 10 9 9 9 9 9 7 6 6 7 6 5 5 5 5 5 5 5 6 6 6 7 8 7 7 7 7 8 8 7 7 6 6
21 19 20 20 18 17 14 13 13 12 12 13 10 10 13 10 10 9 8 7 7 7 6 5 4 5 5 5 5 6 6 6 7 8 8 8 8 7 8 8 8 8 7 7
22 21 21 20 19 19 17 15 14 14 14 15 12 12 14 12 12 11 9 8 7 7 6 5 5 5 5 6 6 6 7 7 7 8 8 8 8 7 8 9 10 9 9 8
22 22 22 21 21 22 20 18 17 14 14 14 13 13 14 13 13 11 10 10 8 8 8 7 6 6 6 6 7 7 8 8 8 8 8 8 8 8 9 10 11 10 10 9
21 21 21 22 22 22 21 19 16 15 15 16 15 14 15 14 14 12 12 11 9 9 9 8 7 7 7 7 8 9 9 9 9 9 9 9 9 9 10 11 12 11 10 10
22 21 21 22 23 23 22 20 19 19 18 17 14 15 15 14 14 13 13 12 10 10 9 9 9 8 9 9 9 10 11 11 11 10 10 10 10 10 11 12 12 11 11 11
23 23 22 23 26 25 23 23 23 22 20 18 16 17 16 15 14 14 13 12 12 11 11 11 11 10 11 11 11 12 12 12 12 11 11 11 11 11 11 12 12 11 11 11
26 24 23 23 23 24 25 24 24 23 22 20 20 20 17 16 15 16 14 15 14 13 13 13 13 13 13 12 13 13 13 13 13 12 12 12 12 12 12 12 12 12 12 13
28 26 24 23 22 22 24 25 25 25 24 22 21 22 19 17 17 17 16 17 16 15 15 15 14 15 15 14 14 15 14 14 13 12 12 12 13 13 13 13 13 13 14 14
29 28 27 25 23 23 24 25 25 25 25 25 24 23 19 17 17 18 19 18 18 18 17 16 16 16 16 16 16 16 14 14 13 12 12 13 13 14 14 14 14 15 15 15
30 30 29 26 24 24 26 26 26 27 27 26 25 24 24 23 22 20 20 19 19 19 18 18 18 17 17 17 17 16 15 14 14 13 13 14 14 15 15 16 16 16 16 16
31 30 30 28 25 24 25 26 27 27 27 27 26 26 25 24 25 23 21 21 21 21 20 20 20 20 19 19 18 17 17 16 16 15 15 15 15 16 16 17 17 17 17 17
30 30 29 28 26 26 27 27 26 26 26 28 29 29 27 28 26 23 23 23 23 23 22 21 21 21 20 20 20 18 18 17 16 16 17 17 18 18 18 18 18 19 19 19
30 31 30 28 27 29 27 26 26 27 28 29 29 29 27 27 25 25 25 24 23 23 23 22 22 22 21 21 21 21 20 19 18 18 19 19 19 19 20 19 20 21 22 22
29 30 30 27 27 27 25 27 27 26 27 28 29 28 29 29 28 27 26 25 24 24 24 24 24 23 22 22 22 21 21 20 20 20 20 20 20 21 21 22 22 22 23 23
28 29 29 28 27 26 26 27 26 27 28 29 29 29 28 27 27 26 26 26 26 26 26 26 25 24 23 22 22 22 21 22 22 22 22 22 22 23 23 24 25 25 25 25
28 28 29 28 28 27 26 27 27 28 28 29 29 29 28 27 27 27 26 26 26 26 25 25 24 23 23 22 22 22 22 23 23 24 24 24 25 25 25 26 26 27 26 26
27 28 29 29 29 29 28 27 28 27 27 29 30 30 29 28 28 27 26 26 26 26 25 24 24 24 23 23 23 23 24 25 25 26 25 26 27 28 28 28 28 27 27 27
25 27 28 30 31 32 30 30 29 29 29 28 28 29 29 28 28 28 27 26 26 26 25 25 26 25 24 24 25 26 26 27 27 27 27 27 28 29 29 29 28 28 28 28
25 25 27 30 31 31 30 28 29 29 28 28 28 28 29 28 27 27 27 27 27 26 26 26 26 27 27 27 27 27 27 27 27 27 28 28 29 29 29 30 29 29 29 29
26 26 28 29 29 29 30 29 28 28 28 28 28 28 28 28 28 28 28 28 27 28 27 27 27 28 28 29 29 28 28 28 28 28 29 28 29 30 30 30 31 31 30 29
27 26 27 27 27 26 27 27 28 28 27 28 28 28 29 29 29 29 29 29 29 29 28 28 29 30 30 30 30 30 29 29 29 29 29 30 30 31 30 31 31 31 31 31
Wind_Direction
217 213 214 216 205 207 211 222 236 240 252 280 325 7 352 358 8 12 16 22 18 17 22 31 35 37 39 42 43 47 47 45 42 40 40 40 42 45 47 49 48 40 42 44
222 216 216 216 208 218 217 218 233 244 237 253 290 305 322 334 343 354 360 9 13 6 11 22 27 31 35 37 36 37 39 39 36 35 36 35 37 41 45 43 38 31 27 30
225 220 219 219 215 217 220 220 224 231 232 245 274 291 302 304 315 327 339 347 354 3 9 15 16 21 26 27 24 24 28 27 27 30 31 25 27 29 24 18 18 14 15 13
226 218 218 222 220 220 223 226 228 235 244 248 258 269 284 299 299 307 325 335 341 344 346 356 4 1 5 13 15 14 16 18 19 16 12 11 17 13 7 3 6 9 6 2
227 218 219 222 223 224 222 223 234 242 246 246 243 258 268 278 286 294 308 321 327 332 329 339 351 348 344 349 358 4 3 2 4 3 3 1 3 360 355 351 350 355 356 346
228 224 226 224 220 222 220 226 236 240 244 251 246 250 261 259 268 281 288 302 312 318 319 325 337 338 335 336 341 346 349 348 347 349 354 354 349 350 346 343 342 341 337 332
227 228 229 226 218 220 219 222 229 232 240 249 253 252 260 259 261 269 275 284 291 303 307 306 310 324 325 321 326 332 333 333 335 338 343 345 347 347 347 346 344 339 336 337
230 229 228 227 224 222 222 222 226 230 240 247 248 250 255 263 265 267 268 273 273 286 294 299 306 315 311 314 317 320 323 325 324 328 332 333 336 335 337 341 341 337 335 336
226 234 235 233 229 227 224 225 229 233 245 248 248 251 252 263 267 267 266 268 273 276 284 292 297 306 312 316 315 316 319 321 319 318 318 319 324 327 331 337 338 335 333 332
220 230 231 233 232 229 226 227 230 230 238 245 246 252 249 254 262 266 269 268 267 269 271 275 283 297 305 306 307 311 314 315 313 311 313 316 321 322 324 328 333 333 330 329
218 225 226 231 233 228 226 225 226 230 233 241 250 254 256 253 259 261 265 267 269 267 269 275 282 291 295 299 301 303 305 309 309 306 307 311 314 318 320 323 326 325 324 323
217 221 225 229 235 229 228 228 227 230 232 233 244 255 256 262 267 263 263 267 267 265 268 272 279 287 288 291 296 297 298 303 306 305 303 305 309 313 314 315 318 318 318 318
220 216 222 225 229 231 227 226 226 230 234 236 244 254 253 256 261 260 262 267 268 267 267 270 276 283 287 289 292 293 295 298 302 305 303 302 303 305 307 308 311 313 315 317
221 219 218 221 225 231 231 229 228 228 232 236 240 249 251 254 259 262 262 262 267 266 264 268 273 279 284 287 290 290 295 299 301 303 304 304 303 303 304 307 310 311 311 312
223 222 220 221 222 228 234 232 232 232 230 234 237 243 249 252 259 258 259 259 262 265 265 267 269 274 276 280 285 287 291 292 295 296 298 301 301 302 303 303 307 309 310 310
225 223 221 222 224 226 231 232 231 233 232 234 237 239 243 252 258 253 253 257 259 262 265 266 269 271 274 276 279 283 284 287 290 291 293 296 297 299 301 302 304 305 307 306
224 224 223 225 226 231 232 234 234 235 234 234 235 240 242 250 252 252 254 257 258 260 265 266 268 271 271 272 274 276 279 283 287 288 289 291 293 295 297 298 299 302 303 302
226 223 224 225 227 234 233 233 235 237 236 236 237 239 242 248 249 252 254 255 258 258 259 263 267 269 271 273 274 275 277 280 283 285 286 289 292 293 294 296 297 299 301 301
228 227 226 226 231 235 233 231 231 233 236 236 236 237 241 245 246 250 254 257 257 258 259 262 266 269 272 272 273 275 277 279 281 282 285 287 290 292 293 294 296 297 299 300
230 229 226 225 230 231 232 233 234 237 240 237 237 238 241 243 243 249 255 258 259 259 261 263 266 268 270 270 272 274 275 276 278 280 282 284 286 290 292 293 294 296 298 299
227 226 224 225 230 232 234 232 232 234 238 237 237 238 240 243 247 251 256 258 259 260 262 263 264 266 268 267 267 271 273 274 276 278 280 281 283 286 288 289 291 293 295 297
228 228 226 226 229 234 237 235 232 233 235 236 237 238 240 244 248 253 256 258 258 260 260 261 263 265 265 266 267 271 274 276 278 279 279 280 282 284 285 287 289 290 292 294
227 229 229 230 232 236 238 237 236 233 234 235 237 237 242 245 249 252 255 256 257 256 258 260 262 263 265 268 271 273 276 277 277 278 279 279 282 283 283 285 287 289 290 291
223 225 226 227 230 234 237 237 238 236 237 238 237 239 243 246 248 250 253 253 255 257 259 260 262 265 266 269 272 274 275 275 276 277 278 278 280 282 283 284 285 287 289 290
223 226 225 228 231 235 237 237 239 241 239 237 239 243 247 249 250 250 252 253 255 256 258 260 262 265 268 269 271 272 272 274 275 276 278 279 280 280 282 283 283 284 287 289
226 226 224 230 235 237 237 237 239 241 242 244 246 247 249 251 253 252 253 254 255 256 258 260 263 266 269 269 270 270 271 272 275 277 279 280 281 281 281 282 283 284 286 287
Height
5898 5901 5903 5906 5908 5910 5911 5913 5914 5914 5913 5913 5913 5913 5912 5911 5911 5910 5909 5907 5906 5905 5905 5904 5903 5902 5901 5900 5899 5899 5898 5898 5897 5896 5895 5895 5894 5893 5892 5891 5891 5890 5890 5890
5897 5899 5902 5904 5906 5908 5909 5912 5913 5914 5914 5914 5913 5913 5913 5912 5911 5911 5910 5909 5908 5907 5905 5905 5905 5904 5903 5902 5901 5900 5900 5899 5898 5898 5897 5896 5895 5894 5893 5892 5892 5891 5891 5891
5894 5898 5900 5902 5904 5906 5908 5910 5912 5913 5913 5913 5913 5913 5912 5913 5912 5911 5910 5909 5909 5908 5907 5905 5905 5905 5904 5903 5902 5902 5901 5900 5900 5899 5898 5897 5896 5895 5895 5893 5893 5892 5892 5891
5890 5894 5897 5900 5902 5904 5906 5908 5910 5911 5911 5911 5913 5913 5913 5912 5912 5911 5910 5910 5909 5908 5908 5907 5906 5905 5905 5904 5903 5902 5901 5901 5900 5899 5899 5898 5897 5896 5896 5894 5893 5893 5892 5891
5887 5890 5893 5896 5899 5902 5905 5907 5908 5909 5909 5910 5912 5912 5912 5912 5910 5910 5910 5910 5909 5908 5908 5907 5906 5906 5905 5905 5904 5903 5902 5902 5901 5900 5899 5898 5897 5897 5896 5895 5894 5893 5892 5891
5884 5887 5890 5893 5896 5900 5902 5904 5906 5906 5908 5908 5909 5911 5910 5910 5910 5909 5909 5909 5909 5908 5907 5907 5906 5906 5905 5905 5904 5903 5903 5902 5901 5900 5899 5898 5897 5897 5896 5895 5894 5893 5892 5891
5880 5883 5885 5889 5892 5896 5899 5901 5903 5904 5905 5906 5908 5909 5908 5908 5908 5908 5907 5908 5908 5907 5907 5906 5906 5905 5905 5904 5904 5903 5903 5902 5901 5900 5899 5898 5897 5896 5896 5895 5894 5892 5891 5891
5876 5879 5882 5885 5888 5891 5894 5898 5900 5902 5904 5904 5905 5905 5906 5905 5906 5906 5906 5906 5906 5906 5905 5905 5905 5904 5903 5903 5903 5903 5902 5901 5901 5900 5899 5898 5897 5896 5895 5895 5893 5892 5891 5890
5873 5877 5880 5882 5884 5888 5890 5893 5897 5899 5901 5900 5901 5903 5903 5902 5903 5903 5904 5905 5904 5905 5904 5904 5904 5903 5902 5902 5902 5902 5901 5901 5900 5899 5898 5898 5897 5896 5895 5894 5892 5891 5890 5889
5869 5873 5876 5878 5880 5883 5887 5891 5894 5895 5896 5897 5898 5899 5899 5898 5900 5901 5901 5902 5902 5902 5902 5902 5902 5902 5902 5901 5901 5901 5900 5899 5899 5898 5897 5897 5896 5895 5894 5893 5891 5890 5889 5888
5863 5867 5871 5873 5874 5878 5882 5886 5888 5890 5892 5895 5895 5898 5896 5896 5896 5897 5898 5899 5900 5901 5901 5901 5901 5900 5900 5900 5899 5899 5898 5898 5897 5896 5896 5895 5894 5894 5892 5891 5890 5889 5888 5887
5856 5861 5864 5867 5870 5873 5877 5880 5883 5886 5888 5890 5892 5895 5892 5893 5895 5895 5896 5897 5898 5898 5899 5899 5899 5898 5898 5897 5897 5897 5896 5895 5895 5894 5894 5893 5892 5891 5891 5889 5888 5887 5886 5885
5850 5854 5858 5862 5867 5868 5870 5874 5878 5881 5884 5886 5888 5891 5889 5890 5891 5892 5893 5894 5895 5895 5896 5896 5896 5896 5895 5894 5894 5893 5893 5893 5892 5892 5891 5890 5890 5889 5888 5887 5886 5885 5884 5882
5843 5847 5852 5857 5861 5864 5865 5868 5872 5875 5877 5881 5883 5884 5885 5886 5887 5888 5889 5890 5891 5892 5892 5892 5893 5893 5892 5891 5891 5890 5890 5890 5890 5889 5888 5888 5887 5886 5885 5884 5883 5882 5881 5880
5837 5841 5845 5849 5853 5858 5860 5863 5865 5868 5871 5875 5877 5879 5881 5882 5883 5884 5885 5885 5887 5888 5888 5888 5889 5889 5889 5889 5888 5888 5887 5887 5887 5886 5886 5885 5884 5883 5882 5881 5880 5879 5877 5876
5830 5834 5838 5842 5847 5850 5853 5856 5859 5862 5865 5869 5871 5873 5875 5876 5877 5878 5880 5881 5882 5883 5884 5884 5884 5884 5885 5885 5884 5884 5884 5884 5883 5883 5882 5882 5881 5880 5879 5878 5877 5875 5874 5872
5824 5828 5832 5836 5840 5842 5845 5850 5853 5855 5858 5861 5864 5867 5869 5870 5871 5872 5874 5876 5877 5878 5879 5879 5880 5879 5880 5880 5880 5880 5880 5880 5879 5879 5878 5878 5877 5876 5875 5874 5873 5871 5870 5868
5818 5821 5825 5829 5834 5835 5841 5843 5846 5848 5851 5853 5857 5859 5862 5863 5864 5867 5868 5869 5872 5872 5873 5873 5874 5874 5874 5875 5875 5875 5875 5875 5875 5874 5874 5873 5872 5871 5870 5869 5868 5867 5865 5864
5811 5815 5819 5823 5826 5828 5833 5835 5838 5840 5843 5846 5849 5852 5854 5857 5859 5860 5861 5863 5864 5866 5867 5868 5868 5869 5869 5869 5869 5870 5870 5870 5870 5869 5869 5868 5867 5866 5865 5864 5863 5861 5860 5858
5805 5808 5813 5816 5819 5821 5825 5828 5830 5834 5834 5838 5841 5845 5847 5850 5853 5854 5855 5856 5858 5859 5861 5862 5862 5863 5863 5863 5864 5864 5864 5864 5864 5864 5863 5863 5862 5861 5859 5858 5857 5855 5854 5852
5799 5802 5805 5809 5812 5813 5816 5819 5823 5827 5828 5831 5834 5837 5840 5842 5846 5848 5849 5850 5851 5853 5854 5855 5856 5857 5857 5857 5858 5858 5858 5858 5858 5857 5857 5856 5855 5854 5853 5852 5850 5849 5847 5845
5793 5796 5799 5802 5805 5809 5809 5812 5815 5816 5820 5823 5827 5830 5833 5836 5838 5840 5842 5844 5845 5846 5847 5848 5849 5850 5851 5851 5851 5852 5851 5851 5851 5850 5849 5849 5848 5847 5846 5845 5843 5841 5840 5838
5787 5790 5793 5796 5799 5799 5801 5803 5807 5810 5813 5815 5819 5824 5827 5829 5831 5834 5835 5837 5838 5839 5840 5841 5842 5843 5844 5844 5845 5845 5844 5844 5843 5842 5842 5841 5840 5839 5838 5837 5835 5834 5832 5831
5780 5782 5785 5787 5790 5792 5794 5797 5800 5803 5805 5808 5812 5817 5820 5823 5825 5827 5828 5830 5831 5833 5834 5834 5835 5836 5837 5837 5837 5837 5837 5836 5835 5835 5834 5833 5833 5832 5830 5829 5828 5826 5825 5823
5774 5777 5778 5780 5783 5785 5788 5791 5794 5796 5799 5803 5807 5810 5813 5816 5818 5820 5821 5822 5824 5825 5826 5827 5828 5829 5829 5829 5829 5829 5829 5828 5827 5827 5826 5825 5824 5823 5822 5821 5819 5818 5817 5815
5769 5770 5772 5775 5777 5780 5783 5785 5788 5790 5794 5797 5800 5803 5806 5808 5810 5812 5814 5815 5816 5818 5819 5820 5820 5821 5821 5821 5821 5820 5820 5820 5820 5819 5818 5817 5816 5814 5813 5812 5811 5810 5808 5807